Temperature
10 9 9 10 11 12 13 13 13 14 14 13 13 13 13 14 14 14 14 14 14 13 13 13 12 12 11 11 11 11 11 11 11 11 11 11 11 11 11 11 11 11 11 10
9 9 11 12 12 12 12 12 12 13 13 13 12 12 13 14 13 14 14 14 14 13 13 12 12 11 11 11 11 11 11 11 11 11 11 11 10 10 10 10 10 10 10 10
9 10 11 11 11 11 11 11 11 12 12 12 12 11 13 13 14 14 14 14 13 13 12 12 11 11 11 11 11 11 11 11 10 10 10 10 10 10 10 10 10 10 10 10
9 10 10 10 10 10 10 11 12 12 10 10 11 9 12 13 13 13 13 13 13 12 12 11 11 11 10 10 10 10 10 10 10 10 10 10 10 10 10 10 10 10 9 9
8 9 9 9 10 10 10 11 11 11 10 9 10 9 10 13 12 12 12 12 12 12 11 11 11 10 10 10 10 10 10 10 10 10 10 10 10 10 10 9 9 9 9 9
8 9 9 9 10 10 10 10 10 10 9 8 10 9 10 11 12 12 12 12 12 11 11 11 10 10 10 10 9 9 9 9 9 9 9 9 9 9 9 9 9 9 9 9
7 8 8 8 8 9 9 8 7 7 7 8 11 10 10 11 12 12 11 11 11 11 10 10 10 9 9 9 9 9 9 9 9 9 9 9 9 9 9 9 9 9 9 9
5 6 7 7 7 7 7 8 7 7 8 8 10 9 9 10 11 11 11 10 10 10 10 9 9 9 9 8 8 8 8 8 8 8 9 9 9 9 9 9 9 9 9 9
4 5 7 7 7 7 7 7 8 8 8 8 8 9 9 10 9 9 9 9 9 9 9 9 9 8 8 8 8 8 8 8 8 8 8 8 8 8 8 8 8 8 8 8
4 4 5 6 7 7 7 7 6 6 7 7 8 9 8 8 8 8 8 8 8 8 8 8 8 8 7 7 7 7 7 7 7 7 8 8 8 8 8 8 8 8 8 8
4 3 4 5 5 5 5 6 6 6 7 7 7 7 9 8 8 7 7 7 7 7 7 7 7 7 7 6 6 6 6 6 6 7 7 7 7 7 7 7 7 8 8 8
3 3 2 4 5 6 5 5 5 5 5 6 6 6 8 7 7 7 6 7 7 6 6 6 6 6 6 6 6 6 6 6 6 6 6 6 6 6 6 6 7 7 7 7
2 2 1 3 3 4 4 4 5 5 4 5 5 5 6 6 5 6 6 6 5 5 5 5 5 5 5 5 5 5 5 5 5 5 6 6 6 6 6 6 6 6 6 6
3 1 1 1 2 2 2 3 4 3 3 3 4 5 4 4 4 4 4 4 4 4 4 4 4 4 4 4 4 4 5 5 5 5 5 5 5 5 5 5 5 5 5 6
2 0 1 2 2 3 2 2 3 3 3 3 4 4 4 3 3 3 3 3 3 3 3 3 3 3 3 3 3 4 4 4 4 4 5 5 5 5 5 5 5 5 5 5
1 -0 0 1 2 2 2 2 2 2 2 3 3 3 2 3 3 3 2 2 2 2 2 2 2 2 2 2 3 3 3 4 4 4 4 4 5 5 5 5 5 4 4 4
-1 -1 -1 -0 1 1 0 1 1 1 1 2 1 1 1 1 2 2 1 1 1 1 1 1 1 2 2 2 2 2 3 3 3 4 4 4 4 4 4 4 4 4 4 4
-1 -1 -1 -1 -0 -1 0 1 1 1 0 0 0 0 0 1 1 1 0 0 0 -0 0 0 1 1 1 1 2 2 2 2 3 3 3 3 4 4 4 4 4 4 4 4
-0 -1 -1 -1 -1 -0 0 -0 -0 -0 -1 -1 -1 -1 -1 -0 1 0 -0 -1 -1 -0 -0 -0 -0 0 1 1 1 1 2 2 2 2 3 3 3 3 3 3 3 3 3 3
-0 -1 -2 -2 -2 -2 -2 -1 -0 -0 -1 -2 -1 -1 -1 -1 -1 -1 -1 -1 -1 -1 -1 -1 -1 -0 0 0 1 1 1 1 1 2 2 2 2 2 2 2 2 2 2 2
-2 -2 -2 -2 -2 -2 -3 -2 -0 -2 -3 -3 -2 -2 -2 -2 -2 -2 -2 -2 -2 -2 -2 -1 -1 -1 -1 -0 -0 -0 -0 0 0 1 1 1 1 2 2 2 2 2 2 2
-4 -4 -3 -3 -3 -3 -3 -3 -3 -4 -3 -3 -3 -3 -3 -3 -2 -3 -3 -3 -3 -3 -2 -2 -2 -2 -1 -1 -1 -1 -1 -1 -0 0 0 1 1 1 1 1 1 1 1 1
-4 -4 -4 -4 -4 -4 -4 -4 -4 -4 -4 -4 -4 -4 -3 -4 -4 -4 -4 -4 -4 -3 -3 -3 -3 -2 -2 -2 -2 -1 -1 -1 -1 -0 -0 -0 -0 0 0 0 0 0 0 0
-4 -4 -4 -5 -5 -4 -4 -4 -5 -5 -5 -4 -4 -4 -4 -4 -4 -4 -4 -4 -4 -4 -4 -4 -4 -3 -3 -3 -3 -2 -2 -2 -1 -1 -1 -1 -1 -1 -1 -0 -0 -0 -0 -0
-6 -5 -5 -5 -5 -5 -5 -5 -6 -6 -5 -5 -5 -5 -5 -5 -5 -5 -5 -5 -5 -5 -5 -5 -5 -4 -4 -4 -3 -3 -3 -2 -2 -2 -2 -2 -2 -1 -1 -1 -1 -1 -1 -1
-6 -7 -6 -6 -6 -6 -6 -6 -6 -6 -6 -6 -6 -6 -6 -5 -6 -6 -6 -6 -6 -6 -6 -5 -5 -5 -5 -4 -4 -4 -3 -3 -3 -2 -2 -2 -2 -2 -2 -2 -2 -2 -2 -2
Wind_Speed
8 8 12 15 17 14 10 10 12 9 5 8 12 13 11 9 8 8 7 8 8 8 7 8 8 8 8 8 8 8 8 7 6 5 4 4 3 3 3 3 5 6 6 6
7 14 14 12 12 14 14 13 12 7 5 7 9 12 10 10 10 8 8 8 8 7 7 8 8 8 8 8 8 8 8 7 7 5 4 4 4 3 3 3 4 6 6 6
13 9 8 11 12 14 15 15 12 9 5 7 6 9 10 8 9 9 8 7 7 7 8 8 8 8 8 8 8 8 8 7 7 6 5 4 3 3 3 3 3 4 7 7
10 9 10 11 13 12 13 11 11 9 6 6 7 6 8 8 9 10 8 7 7 6 6 7 7 8 8 7 7 7 8 7 6 7 6 7 6 4 4 4 3 4 6 6
7 6 9 12 11 11 8 5 9 10 8 7 8 6 6 7 9 10 9 8 7 6 6 6 6 7 7 7 7 7 8 7 7 7 7 6 5 4 3 4 5 4 4 5
10 6 5 7 7 7 5 4 7 8 5 10 12 10 6 6 9 8 8 8 7 7 6 5 5 6 6 6 7 7 8 8 8 7 7 7 6 6 6 6 5 5 4 4
6 7 4 2 3 5 6 4 4 6 8 9 9 9 6 3 4 5 7 6 6 6 6 5 6 6 6 7 7 7 8 8 8 8 8 7 6 7 7 6 6 5 4 3
5 5 4 3 4 4 9 8 6 5 6 4 6 8 4 3 3 4 4 5 5 4 5 5 5 6 6 6 7 7 7 7 8 8 7 6 6 5 5 6 5 6 5 4
4 5 3 3 4 4 6 8 6 3 4 4 5 4 3 4 4 4 4 4 4 3 4 4 4 5 5 5 5 6 6 7 7 7 6 6 6 5 5 5 5 5 4 4
5 6 5 4 3 4 4 2 2 5 5 5 6 7 4 5 4 4 4 4 3 3 3 3 3 4 5 5 4 5 5 6 6 6 6 6 5 5 5 5 5 5 5 5
5 4 4 3 3 3 3 4 4 4 4 4 4 2 2 5 5 5 4 4 3 3 3 3 2 3 4 5 4 3 3 4 4 5 5 5 5 5 5 5 5 5 5 5
4 4 5 7 4 2 3 3 3 3 4 4 3 2 4 6 5 5 4 4 3 4 3 3 3 4 4 3 3 3 2 3 3 4 4 4 4 4 5 5 5 4 5 5
4 3 4 3 1 2 2 3 4 4 3 4 3 2 6 9 8 7 6 5 4 4 4 4 4 3 3 2 2 2 1 2 2 3 4 4 4 4 5 5 5 5 5 5
5 3 4 5 4 3 5 6 6 4 3 5 5 4 6 8 7 7 6 5 4 4 4 3 3 2 2 2 2 1 1 1 1 2 3 4 4 4 4 4 4 5 5 5
3 4 5 7 7 5 5 6 6 5 5 4 5 4 5 5 5 5 5 5 5 4 4 3 3 3 3 2 2 2 1 0 1 2 2 3 3 3 3 4 4 4 5 5
3 4 6 7 7 5 5 5 5 5 5 5 4 4 5 6 5 5 6 6 6 5 5 5 5 4 3 3 2 2 2 1 1 2 2 2 3 3 3 3 3 4 4 4
3 3 4 5 6 5 4 4 3 2 2 2 3 4 6 7 7 5 5 6 6 6 6 5 5 5 4 3 2 2 2 1 0 1 1 2 2 3 3 3 3 4 4 4
4 4 3 4 3 3 0 3 4 2 4 5 5 6 6 7 6 4 7 6 6 6 6 5 5 5 5 4 3 3 2 1 1 1 1 1 1 2 2 2 3 3 3 3
4 3 3 2 3 3 2 5 6 4 2 6 7 8 9 9 4 3 8 7 5 5 5 5 5 5 5 4 4 3 3 2 2 1 1 0 1 2 2 3 3 2 2 2
2 3 2 2 3 2 4 9 10 5 1 7 8 7 7 7 4 3 7 8 7 7 6 6 6 6 5 5 4 3 3 3 3 2 2 1 0 1 2 2 1 1 2 2
3 2 3 4 3 1 5 10 7 2 5 8 7 5 5 4 3 5 6 6 7 7 7 6 6 5 5 6 4 3 3 3 3 3 2 2 1 1 1 1 0 1 1 2
3 3 2 2 2 3 8 7 4 4 6 6 6 6 6 6 5 5 6 6 7 7 7 7 6 6 6 6 5 4 4 4 3 2 2 2 2 1 1 1 0 1 1 2
2 2 2 1 1 3 5 4 5 6 6 6 6 6 5 5 5 6 6 6 6 7 7 6 6 6 6 6 5 4 4 4 3 3 3 2 2 2 1 1 1 0 1 1
3 4 2 1 2 4 5 6 7 7 7 7 6 6 5 5 5 5 5 5 6 6 6 6 6 6 7 7 6 5 5 4 4 3 3 2 2 2 2 1 1 1 0 1
3 4 3 2 3 5 6 9 9 8 7 7 7 6 6 5 5 5 5 5 5 6 6 6 6 6 7 7 8 7 6 5 4 3 3 2 2 2 2 2 2 1 0 1
3 3 3 3 4 5 6 8 9 8 8 7 7 7 6 5 5 5 5 5 5 5 6 6 6 6 7 7 8 8 7 6 4 3 3 3 2 2 2 2 3 5 4 4
Wind_Direction
204 218 220 218 220 237 252 248 250 248 206 212 227 237 236 226 221 219 212 204 197 199 184 173 168 162 158 160 162 166 165 164 158 157 159 157 161 156 144 135 142 150 146 144
227 232 234 235 234 240 248 254 257 254 219 220 242 251 241 225 217 212 210 209 198 189 179 173 166 162 166 168 168 168 168 165 165 165 162 157 156 160 157 146 143 154 151 152
238 241 237 235 239 237 239 240 248 255 254 239 246 258 234 216 210 210 208 207 194 183 178 175 170 169 167 171 173 173 170 167 166 158 152 150 141 143 148 153 162 158 157 155
251 252 247 241 239 237 243 239 246 251 245 247 212 250 234 209 204 206 202 195 189 182 176 172 171 170 170 172 169 168 166 167 166 161 163 164 165 171 177 167 167 163 159 156
252 247 242 242 240 237 245 257 245 246 240 255 229 234 246 199 208 203 196 190 181 175 173 170 169 171 170 167 167 168 164 168 168 168 171 172 172 172 158 155 162 165 162 162
266 271 268 263 255 241 239 255 248 239 234 240 222 217 248 208 203 188 180 175 174 170 168 162 157 154 161 162 163 166 166 172 173 174 175 176 175 170 165 169 171 173 170 172
269 247 251 280 264 220 209 199 212 210 215 233 209 212 228 202 169 167 162 161 157 155 159 161 157 157 157 161 166 171 171 177 177 177 179 182 181 178 177 175 175 172 173 174
280 258 209 214 232 227 218 209 208 211 215 229 199 212 197 151 110 107 109 121 121 135 151 156 155 156 159 162 167 174 178 177 178 180 182 181 179 181 181 179 175 178 180 178
293 285 298 259 251 227 217 223 242 269 270 247 219 196 186 135 117 127 129 121 125 136 138 140 139 146 151 157 163 173 178 173 177 179 177 180 179 179 181 178 171 171 169 175
302 292 296 303 276 251 255 256 229 222 219 236 229 203 193 167 157 143 137 135 117 107 108 113 124 135 144 152 154 165 174 174 176 176 178 182 182 182 181 175 174 171 170 172
315 284 289 301 237 243 235 237 238 236 232 226 235 212 60 134 138 137 130 127 117 96 86 88 93 105 122 127 136 147 165 165 169 174 177 178 181 182 178 175 176 172 170 172
322 295 272 269 278 297 249 235 231 238 253 243 248 260 21 62 68 90 93 78 92 91 76 71 80 81 85 103 116 137 145 156 167 172 173 177 177 178 179 180 180 175 174 176
318 293 295 293 309 17 327 294 278 274 274 261 237 241 25 44 42 44 46 50 56 72 65 60 67 74 76 86 98 117 122 140 153 165 172 175 179 182 186 183 179 177 175 177
315 265 251 265 300 316 296 294 289 271 243 256 252 271 340 18 18 17 21 28 47 56 60 55 47 50 54 58 65 80 90 120 154 159 170 180 185 187 187 182 179 178 178 180
328 274 279 288 294 298 301 301 290 269 259 251 277 280 317 345 352 2 16 21 34 39 39 41 38 35 40 39 29 20 25 70 174 173 174 184 183 176 173 177 181 178 179 185
319 283 299 287 280 292 305 324 306 283 279 273 290 307 340 349 3 18 22 27 27 23 22 22 23 23 19 19 6 354 344 295 178 174 183 175 162 157 164 174 175 175 179 183
274 274 283 277 288 296 283 316 315 288 297 306 293 309 343 355 354 4 20 29 27 19 14 15 6 4 359 350 346 332 322 332 88 162 159 147 150 160 165 166 168 178 184 183
257 271 262 270 298 246 210 28 356 347 35 18 7 3 356 339 334 35 42 32 21 10 2 358 356 354 350 350 356 351 342 11 43 65 110 132 147 164 162 164 176 186 188 194
245 256 268 267 250 250 355 1 343 316 315 14 359 352 351 349 358 45 26 19 9 358 355 354 354 350 351 358 4 5 10 24 36 33 46 147 169 171 171 183 193 199 193 198
286 252 252 275 273 270 336 330 325 310 276 6 354 343 340 351 349 332 359 2 1 4 3 1 3 5 5 359 3 16 20 22 10 357 351 352 152 170 187 199 208 210 201 206
331 301 255 262 259 333 340 329 340 2 308 331 335 334 338 339 310 321 351 359 3 6 6 8 12 9 2 359 8 22 26 6 347 351 358 13 62 141 178 173 176 201 209 202
339 328 316 295 276 299 351 2 17 323 323 333 341 346 342 337 344 1 5 5 6 7 8 10 13 8 4 8 17 22 13 355 360 17 24 23 24 41 63 97 99 207 205 205
15 343 306 300 273 336 354 360 347 339 336 343 345 345 346 351 360 2 7 10 9 10 11 12 16 12 10 10 16 18 359 360 19 38 35 29 27 34 50 108 117 178 186 191
355 343 327 325 345 346 358 5 360 354 351 350 353 355 3 7 6 6 10 9 9 10 16 16 20 18 10 7 14 16 6 7 28 37 30 27 36 41 41 56 74 90 132 190
335 334 329 313 332 344 5 6 357 356 360 1 2 5 9 13 9 7 7 9 13 16 17 20 21 19 12 10 13 10 10 17 32 34 26 26 39 63 57 48 43 34 46 189
2 343 333 318 334 325 321 338 346 352 354 356 360 5 10 13 11 10 11 11 13 19 22 22 22 20 15 16 14 8 9 15 27 36 27 24 26 39 58 60 37 30 28 27
Height
1461 1463 1459 1455 1455 1454 1453 1454 1454 1450 1450 1453 1455 1454 1453 1453 1454 1455 1457 1460 1462 1465 1468 1471 1473 1476 1479 1481 1484 1486 1489 1492 1494 1497 1499 1501 1503 1506 1508 1510 1512 1514 1516 1518
1459 1457 1451 1451 1451 1453 1453 1453 1452 1450 1449 1451 1452 1451 1448 1447 1449 1451 1453 1456 1458 1461 1464 1467 1469 1472 1474 1477 1480 1482 1485 1488 1491 1493 1496 1499 1501 1503 1505 1508 1510 1512 1514 1516
1454 1449 1448 1450 1450 1450 1450 1452 1452 1451 1450 1449 1452 1451 1445 1442 1444 1447 1449 1452 1454 1457 1460 1463 1465 1468 1470 1473 1476 1479 1482 1485 1487 1490 1494 1496 1499 1501 1503 1505 1507 1509 1511 1513
1450 1447 1447 1447 1447 1448 1449 1446 1448 1449 1455 1456 1453 1459 1442 1438 1441 1442 1445 1448 1450 1453 1456 1459 1461 1464 1467 1469 1473 1475 1478 1481 1484 1487 1490 1492 1494 1497 1499 1502 1504 1507 1509 1510
1446 1444 1444 1444 1443 1445 1446 1445 1447 1448 1451 1455 1450 1455 1443 1435 1438 1439 1441 1444 1447 1450 1453 1455 1457 1460 1463 1466 1469 1472 1475 1477 1480 1483 1486 1489 1491 1494 1497 1499 1502 1504 1506 1508
1445 1443 1443 1441 1441 1442 1444 1447 1447 1448 1452 1457 1445 1450 1443 1434 1432 1434 1437 1440 1444 1447 1450 1452 1455 1458 1460 1463 1466 1468 1471 1473 1476 1479 1482 1485 1488 1490 1493 1495 1498 1500 1502 1504
1445 1442 1442 1442 1443 1442 1445 1451 1455 1455 1456 1448 1434 1439 1438 1429 1428 1430 1433 1437 1440 1444 1447 1450 1452 1454 1457 1459 1462 1465 1467 1469 1472 1475 1478 1481 1484 1487 1489 1492 1494 1496 1498 1500
1451 1446 1441 1441 1443 1444 1442 1444 1449 1449 1445 1440 1432 1436 1434 1428 1428 1430 1432 1436 1439 1442 1445 1447 1450 1451 1454 1456 1459 1461 1463 1466 1469 1471 1474 1477 1480 1483 1485 1488 1490 1492 1495 1497
1455 1447 1440 1439 1439 1441 1441 1440 1437 1442 1439 1439 1434 1430 1429 1428 1429 1431 1433 1436 1439 1441 1443 1445 1447 1449 1452 1454 1456 1458 1460 1463 1465 1468 1471 1473 1476 1479 1481 1484 1486 1489 1491 1493
1455 1454 1443 1441 1439 1439 1439 1439 1442 1444 1442 1438 1429 1428 1433 1432 1432 1432 1434 1436 1438 1440 1442 1444 1446 1448 1450 1452 1454 1456 1458 1460 1462 1464 1467 1470 1472 1475 1478 1480 1482 1485 1487 1490
1457 1457 1450 1445 1443 1442 1442 1442 1440 1440 1437 1437 1434 1435 1427 1428 1429 1432 1434 1436 1438 1439 1441 1443 1445 1447 1448 1450 1451 1453 1456 1458 1459 1461 1463 1466 1468 1471 1473 1476 1478 1481 1483 1485
1459 1458 1454 1447 1441 1440 1441 1440 1442 1446 1440 1434 1436 1442 1429 1430 1430 1432 1434 1436 1438 1440 1441 1443 1444 1445 1447 1448 1449 1451 1453 1455 1457 1458 1460 1463 1465 1467 1469 1472 1474 1477 1479 1481
1461 1461 1459 1449 1447 1445 1445 1443 1442 1443 1443 1441 1440 1442 1432 1433 1434 1435 1436 1438 1439 1440 1442 1443 1443 1444 1445 1446 1447 1449 1451 1452 1454 1456 1458 1459 1461 1463 1466 1468 1470 1472 1475 1477
1461 1461 1461 1459 1452 1450 1450 1446 1444 1445 1448 1444 1441 1441 1440 1439 1439 1439 1440 1440 1440 1441 1441 1442 1443 1444 1444 1445 1446 1447 1449 1450 1452 1453 1455 1456 1458 1460 1462 1464 1467 1469 1471 1473
1461 1461 1456 1453 1449 1448 1448 1447 1445 1445 1444 1445 1441 1442 1443 1443 1443 1442 1442 1441 1441 1441 1441 1442 1442 1443 1443 1444 1444 1445 1447 1448 1449 1450 1452 1453 1455 1457 1459 1461 1463 1465 1467 1469
1462 1462 1458 1454 1448 1446 1447 1447 1445 1445 1445 1444 1443 1444 1445 1444 1443 1443 1443 1442 1442 1442 1442 1442 1442 1442 1442 1443 1443 1444 1445 1446 1446 1447 1449 1450 1452 1454 1456 1457 1459 1461 1463 1465
1463 1463 1461 1456 1448 1446 1451 1450 1448 1448 1447 1447 1449 1451 1447 1445 1445 1445 1445 1443 1443 1443 1442 1442 1442 1441 1442 1442 1442 1442 1443 1443 1444 1445 1446 1447 1449 1451 1452 1454 1456 1457 1459 1461
1462 1461 1461 1456 1454 1458 1454 1450 1449 1448 1450 1451 1451 1450 1449 1447 1446 1446 1445 1445 1444 1444 1443 1442 1441 1441 1441 1441 1440 1440 1441 1441 1442 1442 1444 1445 1446 1448 1449 1451 1452 1454 1456 1457
1458 1460 1460 1457 1455 1452 1452 1452 1452 1451 1451 1453 1453 1451 1449 1447 1444 1445 1446 1445 1445 1444 1443 1442 1441 1440 1439 1439 1438 1438 1438 1439 1440 1440 1441 1442 1443 1445 1446 1447 1449 1451 1452 1453
1457 1458 1461 1459 1458 1457 1460 1455 1451 1451 1453 1455 1453 1452 1450 1448 1448 1447 1446 1445 1444 1443 1442 1441 1439 1439 1438 1437 1437 1436 1436 1437 1437 1438 1439 1440 1441 1442 1443 1444 1446 1447 1449 1450
1463 1461 1462 1461 1460 1461 1462 1456 1451 1459 1461 1457 1454 1453 1452 1450 1450 1448 1446 1445 1443 1442 1441 1440 1439 1438 1437 1436 1436 1435 1435 1435 1436 1436 1437 1438 1439 1440 1441 1442 1443 1444 1445 1446
1469 1468 1465 1463 1464 1468 1463 1459 1462 1463 1459 1457 1455 1453 1452 1450 1448 1447 1446 1444 1443 1441 1440 1439 1438 1437 1436 1436 1435 1435 1435 1434 1434 1434 1435 1435 1436 1437 1438 1439 1440 1441 1442 1443
1470 1472 1471 1470 1471 1468 1466 1465 1464 1462 1459 1457 1455 1453 1451 1450 1448 1447 1446 1444 1443 1441 1440 1439 1438 1437 1436 1435 1435 1434 1434 1433 1433 1433 1433 1434 1435 1436 1437 1437 1437 1438 1439 1439
1472 1470 1470 1470 1469 1468 1467 1465 1463 1461 1459 1457 1455 1453 1451 1449 1448 1447 1446 1444 1443 1441 1440 1439 1438 1437 1436 1435 1434 1434 1433 1433 1432 1432 1432 1433 1433 1434 1435 1435 1435 1436 1436 1437
1476 1473 1472 1471 1470 1468 1466 1466 1464 1461 1459 1457 1455 1453 1451 1449 1448 1447 1446 1444 1443 1442 1441 1439 1438 1437 1436 1435 1434 1433 1433 1432 1432 1432 1432 1432 1433 1433 1433 1433 1434 1434 1435 1435
1477 1477 1476 1473 1472 1471 1468 1466 1463 1461 1458 1456 1454 1452 1451 1450 1449 1448 1446 1445 1443 1442 1441 1440 1439 1437 1436 1435 1434 1433 1433 1432 1432 1431 1431 1431 1432 1432 1432 1432 1432 1433 1434 1434